EW5802 Weather Reports


Display with metric or nautical units.
time (UTC)temp
F
wind
direction
speed
MPH
gust
MPH
rain 1hr
in
rain 24hr
in
rain mn
in
humidity
%
barometer
mb
20260509200204 57 131 0.0 0.0 0.00 0.25 0.25 87 1009.9
20260509195704 57 131 0.0 0.0 0.00 0.25 0.25 87 1009.8
20260509194704 57 131 0.0 0.0 0.01 0.25 0.25 87 1009.6
20260509194204 57 131 0.0 0.0 0.01 0.25 0.25 87 1009.7
20260509193704 57 131 0.0 0.0 0.01 0.25 0.25 87 1009.8
20260509193204 57 131 0.0 0.0 0.01 0.25 0.25 87 1009.9
20260509192704 57 131 0.0 0.0 0.01 0.25 0.25 87 1010.1
20260509191704 57 131 0.0 2.0 0.02 0.25 0.25 86 1010.1
20260509191204 57 131 0.0 1.0 0.02 0.25 0.25 85 1010.2
20260509190704 58 131 0.0 2.0 0.02 0.25 0.25 86 1010.4
20260509190204 57 131 1.0 2.0 0.02 0.25 0.25 86 1010.4
20260509185205 57 173 1.0 1.0 0.02 0.25 0.25 86 1010.5
20260509184704 57 173 2.0 3.0 0.01 0.24 0.24 85 1010.6
20260509184204 57 167 2.0 3.0 0.01 0.24 0.24 86 1010.8
20260509183205 57 166 0.0 3.0 0.01 0.24 0.24 86 1010.7
20260509182705 57 166 2.0 3.0 0.02 0.24 0.24 86 1010.8
20260509182205 57 186 1.0 2.0 0.01 0.23 0.23 85 1010.7
20260509181704 57 187 1.0 2.0 0.01 0.23 0.23 86 1010.5
20260509181205 57 187 0.0 0.0 0.01 0.23 0.23 85 1010.4
20260509180704 57 187 0.0 1.0 0.01 0.23 0.23 85 1010.4
20260509180203 57 187 1.0 2.0 0.01 0.23 0.23 85 1010.4
20260509175703 56 187 0.0 2.0 0.01 0.23 0.23 86 1010.6
20260509175204 56 187 1.0 2.0 0.02 0.23 0.23 87 1010.7
20260509174704 56 187 0.0 1.0 0.02 0.23 0.23 86 1010.8
20260509174206 56 187 0.0 0.0 0.02 0.23 0.23 87 1010.8
20260509173704 55 187 0.0 2.0 0.03 0.23 0.23 87 1010.9
20260509173204 55 187 0.0 0.0 0.03 0.23 0.23 87 1011.1
20260509172704 55 187 0.0 2.0 0.02 0.22 0.22 87 1011.2
20260509172203 55 187 1.0 2.0 0.02 0.22 0.22 87 1011.3
20260509171204 55 187 1.0 2.0 0.03 0.22 0.22 87 1011.4
20260509170705 55 187 2.0 3.0 0.04 0.22 0.22 87 1011.4
20260509170205 55 184 2.0 3.0 0.04 0.22 0.22 87 1011.4
20260509165706 55 159 1.0 3.0 0.05 0.22 0.22 87 1011.3
20260509165206 55 182 1.0 3.0 0.04 0.21 0.21 87 1011.3
20260509164705 55 209 1.0 3.0 0.05 0.21 0.21 87 1011.4
20260509164205 55 185 3.0 7.0 0.05 0.21 0.21 87 1011.3
20260509163206 55 191 1.0 3.0 0.05 0.20 0.20 87 1011.0
20260509162705 54 187 2.0 6.0 0.07 0.20 0.20 87 1010.7
20260509162205 54 359 2.0 3.0 0.08 0.20 0.20 88 1010.3
20260509161705 54 294 1.0 3.0 0.09 0.19 0.19 88 1010.5
20260509161205 54 294 0.0 2.0 0.11 0.19 0.19 88 1010.6
20260509160705 54 294 1.0 2.0 0.12 0.18 0.18 88 1010.7
20260509160205 54 294 1.0 2.0 0.13 0.18 0.18 87 1010.9
20260509155705 54 275 1.0 3.0 0.13 0.17 0.17 87 1010.9
20260509155205 54 198 0.0 2.0 0.13 0.17 0.17 88 1011.0
20260509154706 54 198 0.0 2.0 0.13 0.16 0.16 87 1011.3
20260509154205 54 198 1.0 2.0 0.13 0.16 0.16 87 1011.5
20260509153705 54 198 1.0 2.0 0.13 0.15 0.15 87 1011.7
20260509153205 54 200 1.0 1.0 0.13 0.15 0.15 88 1011.7
20260509152705 54 200 1.0 2.0 0.12 0.13 0.13 87 1011.8
20260509152205 54 200 0.0 0.0 0.11 0.12 0.12 87 1011.9
20260509151705 54 200 0.0 0.0 0.09 0.10 0.10 86 1012.1
20260509151205 54 200 0.0 0.0 0.07 0.08 0.08 85 1012.2
20260509150705 54 200 0.0 2.0 0.05 0.06 0.06 85 1012.2
20260509150205 54 200 1.0 1.0 0.04 0.05 0.05 85 1012.1
20260509144705 55 200 0.0 0.0 0.02 0.03 0.03 83 1011.7
20260509144205 55 200 0.0 0.0 0.02 0.03 0.03 83 1011.7
20260509143704 55 200 0.0 1.0 0.01 0.02 0.02 81 1011.7
20260509143205 55 200 1.0 2.0 0.01 0.02 0.02 81 1011.7
20260509142705 55 200 0.0 2.0 0.00 0.01 0.01 80 1011.6
20260509142205 55 200 0.0 2.0 0.00 0.01 0.01 81 1011.5
20260509141706 55 200 0.0 1.0 0.00 0.01 0.01 79 1011.4
20260509141205 55 200 0.0 3.0 0.00 0.01 0.01 78 1011.4
20260509140705 56 160 3.0 3.0 0.00 0.01 0.01 77 1011.4
20260509140205 56 179 1.0 2.0 0.00 0.01 0.01 79 1011.2
20260509135705 56 179 0.0 1.0 0.00 0.01 0.01 80 1011.1
20260509135205 56 179 1.0 2.0 0.00 0.01 0.01 80 1011.0
20260509134705 56 179 0.0 2.0 0.00 0.01 0.01 80 1011.0
20260509134205 55 179 1.0 2.0 0.00 0.01 0.01 81 1010.9
20260509133705 55 265 1.0 3.0 0.00 0.01 0.01 81 1010.9
20260509133205 55 190 0.0 2.0 0.00 0.01 0.01 82 1011.1
20260509132705 55 190 1.0 3.0 0.00 0.01 0.01 82 1011.1
20260509132205 55 238 2.0 6.0 0.01 0.01 0.01 79 1011.1
20260509131705 55 275 1.0 2.0 0.01 0.01 0.01 81 1011.0
20260509131205 54 260 0.0 0.0 0.01 0.01 0.01 82 1011.0
20260509130704 54 260 1.0 2.0 0.01 0.01 0.01 81 1010.9
20260509130205 54 260 0.0 2.0 0.01 0.01 0.01 83 1010.8
20260509125704 54 260 1.0 3.0 0.01 0.01 0.01 84 1010.8
20260509124707 54 327 0.0 2.0 0.01 0.01 0.01 84 1010.5
20260509124204 54 13 0.0 2.0 0.01 0.01 0.01 84 1010.5
20260509123705 54 136 0.0 2.0 0.01 0.01 0.01 85 1010.7
20260509123204 54 136 1.0 2.0 0.01 0.01 0.01 84 1011.0
20260509122705 54 136 0.0 1.0 0.01 0.01 0.01 84 1011.1
20260509122204 54 136 0.0 2.0 0.00 0.00 0.00 82 1011.2
20260509121705 54 136 0.0 1.0 0.00 0.00 0.00 81 1011.4
20260509120705 54 136 0.0 0.0 0.00 0.00 0.00 81 1011.3
20260509120204 53 136 0.0 0.0 0.00 0.00 0.00 81 1011.3
20260509115704 53 136 0.0 0.0 0.00 0.00 0.00 81 1011.3
20260509115205 53 136 0.0 0.0 0.00 0.00 0.00 81 1011.3
20260509114704 53 136 0.0 1.0 0.00 0.00 0.00 82 1011.1
20260509114205 53 136 0.0 0.0 0.00 0.00 0.00 81 1011.0
20260509113704 53 136 0.0 0.0 0.00 0.00 0.00 80 1010.8
20260509113204 53 136 0.0 0.0 0.00 0.00 0.00 81 1010.9
20260509112705 53 136 0.0 1.0 0.00 0.00 0.00 81 1010.9
20260509112204 53 136 0.0 1.0 0.00 0.00 0.00 81 1011.0
20260509111705 53 136 1.0 2.0 0.00 0.00 0.00 79 1011.2
20260509111205 53 136 1.0 3.0 0.00 0.00 0.00 80 1011.2
20260509110204 52 136 0.0 2.0 0.00 0.00 0.00 80 1010.8
20260509105704 52 136 0.0 1.0 0.00 0.00 0.00 80 1010.7
20260509105204 52 136 1.0 2.0 0.00 0.00 0.00 79 1010.8
20260509104704 52 136 0.0 2.0 0.00 0.00 0.00 79 1010.5
20260509104205 52 136 1.0 3.0 0.00 0.00 0.00 78 1010.6
20260509103704 52 136 0.0 0.0 0.00 0.00 0.00 78 1010.3
20260509103205 52 136 0.0 1.0 0.00 0.00 0.00 79 1010.2
20260509102705 52 136 0.0 2.0 0.00 0.00 0.00 79 1010.3
20260509102204 52 136 0.0 2.0 0.00 0.00 0.00 78 1010.5
20260509101705 51 136 0.0 0.0 0.00 0.00 0.00 79 1010.3
20260509101204 52 136 0.0 0.0 0.00 0.00 0.00 78 1010.3
20260509100704 51 136 0.0 0.0 0.00 0.00 0.00 78 1010.3
20260509100205 52 136 0.0 0.0 0.00 0.00 0.00 77 1010.4
20260509095704 52 136 0.0 0.0 0.00 0.00 0.00 77 1010.5
20260509095204 52 136 0.0 0.0 0.00 0.00 0.00 77 1010.5
20260509094204 52 136 0.0 0.0 0.00 0.00 0.00 77 1010.4
20260509093705 52 136 0.0 0.0 0.00 0.00 0.00 77 1010.4
20260509093204 51 136 0.0 0.0 0.00 0.00 0.00 75 1010.6
20260509092704 51 136 0.0 0.0 0.00 0.00 0.00 75 1010.6
20260509092204 52 136 0.0 0.0 0.00 0.00 0.00 75 1010.6
20260509090204 52 136 0.0 2.0 0.00 0.00 0.00 74 1010.4
20260509085704 53 136 0.0 2.0 0.00 0.00 0.00 73 1010.5
20260509085204 52 136 0.0 1.0 0.00 0.00 0.00 75 1010.6
20260509084704 52 136 0.0 0.0 0.00 0.00 0.00 76 1010.6
20260509084204 52 136 0.0 0.0 0.00 0.00 0.00 76 1010.6
20260509083705 52 136 0.0 0.0 0.00 0.00 0.00 74 1010.7
20260509083204 52 136 0.0 0.0 0.00 0.00 0.00 76 1010.7
20260509082705 52 136 0.0 2.0 0.00 0.00 0.00 74 1010.7
20260509081704 53 136 0.0 2.0 0.00 0.00 0.00 74 1010.8
20260509081205 53 136 0.0 2.0 0.00 0.00 0.00 74 1010.7
20260509080704 52 136 0.0 2.0 0.00 0.00 0.00 73 1010.7
20260509075205 53 136 0.0 0.0 0.00 0.00 0.00 72 1010.8
20260509074705 53 136 0.0 0.0 0.00 0.00 0.00 72 1010.8
20260509074206 53 136 0.0 0.0 0.00 0.00 0.00 69 1010.9
20260509073706 53 136 0.0 0.0 0.00 0.00 0.00 69 1010.8
20260509073205 54 136 0.0 0.0 0.00 0.00 0.00 68 1010.8
20260509072705 55 136 0.0 0.0 0.00 0.00 0.00 64 1010.9
20260509072205 55 136 1.0 3.0 0.00 0.00 0.00 63 1011.0
20260509071705 55 57 1.0 3.0 0.00 0.00 0.00 64 1011.0
20260509071205 56 57 1.0 3.0 0.00 0.00 0.00 63 1010.9
20260509070705 55 28 2.0 3.0 0.00 0.00 0.00 63 1010.9
20260509070206 55 20 2.0 3.0 0.00 0.00 0.00 64 1011.0
20260509065705 56 15 3.0 5.0 0.00 0.00 0.00 63 1011.1
20260509065205 55 15 2.0 3.0 0.00 0.00 0.00 64 1011.2
20260509064705 55 14 2.0 3.0 0.00 0.00 0.00 63 1011.3
20260509064205 56 26 2.0 3.0 0.00 0.00 0.00 62 1011.2
20260509063205 56 11 2.0 3.0 0.00 0.00 0.00 63 1011.3
20260509062705 56 17 2.0 5.0 0.00 0.00 0.00 61 1011.3
20260509061705 55 5 1.0 3.0 0.00 0.00 0.00 64 1011.4
20260509061205 55 359 1.0 2.0 0.00 0.00 0.00 67 1011.5
20260509060705 55 355 0.0 3.0 0.00 0.00 0.00 67 1011.5
20260509055704 55 53 0.0 2.0 0.00 0.00 0.00 66 1011.4
20260509055205 56 53 0.0 3.0 0.00 0.00 0.00 65 1011.4
20260509054205 55 14 1.0 2.0 0.00 0.00 0.00 70 1011.5
20260509053705 54 345 0.0 0.0 0.00 0.00 0.00 72 1011.5
20260509053205 54 345 0.0 0.0 0.00 0.00 0.00 74 1011.5
20260509052705 54 345 0.0 0.0 0.00 0.00 0.00 73 1011.6
20260509052205 54 345 0.0 0.0 0.00 0.00 0.00 73 1011.6
20260509051705 53 345 0.0 0.0 0.00 0.00 0.00 75 1011.6
20260509051205 53 345 0.0 0.0 0.00 0.00 0.00 75 1011.6
20260509050705 53 345 0.0 0.0 0.00 0.00 0.00 75 1011.8
20260509050206 53 345 0.0 0.0 0.00 0.00 0.00 73 1011.8
20260509045205 53 345 0.0 0.0 0.00 0.00 0.00 73 1011.7
20260509044705 53 345 0.0 0.0 0.00 0.00 0.00 71 1011.8
20260509044205 53 345 0.0 0.0 0.00 0.00 0.00 72 1011.8
20260509043705 53 345 0.0 0.0 0.00 0.00 0.00 72 1011.8
20260509042704 53 345 0.0 0.0 0.00 0.00 0.00 74 1011.8
20260509042205 53 345 0.0 0.0 0.00 0.00 0.00 72 1011.8
20260509041705 53 345 0.0 0.0 0.00 0.00 0.00 70 1011.8
20260509041205 53 345 0.0 0.0 0.00 0.00 0.00 72 1011.7
20260509040706 54 345 0.0 0.0 0.00 0.00 0.00 70 1011.7
20260509040204 54 345 0.0 0.0 0.00 0.00 0.00 70 1011.8
20260509035705 54 345 0.0 0.0 0.00 0.00 0.00 68 1012.0
20260509035205 54 345 0.0 0.0 0.00 0.00 0.00 68 1012.0
20260509034705 53 345 0.0 0.0 0.00 0.00 0.00 70 1012.0
20260509034205 53 345 0.0 0.0 0.00 0.00 0.00 71 1012.1
20260509033705 53 345 0.0 0.0 0.00 0.00 0.00 75 1012.1
20260509033204 53 345 0.0 0.0 0.00 0.00 0.00 74 1012.1
20260509032704 54 345 0.0 0.0 0.00 0.00 0.00 71 1012.2
20260509032204 54 345 0.0 0.0 0.00 0.00 0.00 69 1012.1
20260509031704 54 345 0.0 0.0 0.00 0.00 0.00 69 1012.1
20260509031204 54 345 0.0 0.0 0.00 0.00 0.00 68 1012.2
20260509030705 54 345 0.0 0.0 0.00 0.00 0.00 70 1012.3
20260509030204 53 345 0.0 0.0 0.00 0.00 0.00 73 1012.4
20260509025705 53 345 0.0 0.0 0.00 0.00 0.00 74 1012.5
20260509025206 53 345 0.0 0.0 0.00 0.00 0.00 74 1012.6
20260509024705 53 345 0.0 0.0 0.00 0.00 0.00 72 1012.5
20260509024204 53 345 0.0 0.0 0.00 0.00 0.00 73 1012.4
20260509023704 54 345 0.0 0.0 0.00 0.00 0.00 72 1012.4
20260509022704 54 345 0.0 0.0 0.00 0.00 0.00 69 1011.9
20260509022204 54 345 0.0 0.0 0.00 0.00 0.00 69 1011.8
20260509021705 54 345 0.0 0.0 0.00 0.00 0.00 68 1011.8
20260509021205 54 345 0.0 0.0 0.00 0.00 0.00 68 1011.8
20260509020705 54 345 0.0 0.0 0.00 0.00 0.00 67 1011.9
20260509020205 54 345 0.0 0.0 0.00 0.00 0.00 68 1012.0
20260509015705 54 345 0.0 0.0 0.00 0.00 0.00 67 1011.8
20260509014704 55 345 0.0 0.0 0.00 0.00 0.00 68 1011.9
20260509014204 55 345 0.0 0.0 0.00 0.00 0.00 69 1011.9
20260509013705 55 345 0.0 0.0 0.00 0.00 0.00 71 1011.9
20260509013204 55 345 0.0 0.0 0.00 0.00 0.00 70 1011.8
20260509012704 55 345 0.0 0.0 0.00 0.00 0.00 70 1011.8
20260509011704 55 345 0.0 0.0 0.00 0.00 0.00 70 1011.8
20260509010704 56 345 1.0 2.0 0.00 0.00 0.00 69 1011.7
20260509005204 56 345 0.0 0.0 0.00 0.00 0.00 68 1011.6
20260509004704 56 345 0.0 2.0 0.00 0.00 0.00 68 1011.6
20260509004204 56 345 0.0 1.0 0.00 0.00 0.00 68 1011.6
20260509003704 56 345 0.0 0.0 0.00 0.00 0.00 66 1011.6
20260509003204 56 345 0.0 0.0 0.00 0.00 0.00 67 1011.7
20260509002705 56 345 0.0 0.0 0.00 0.00 0.00 67 1011.6
20260509002204 56 345 1.0 1.0 0.00 0.00 0.00 67 1011.6
20260509000705 57 345 0.0 1.0 0.00 0.00 0.00 66 1011.5
20260509000205 57 345 1.0 1.0 0.00 0.00 0.00 65 1011.5
20260508235704 57 345 0.0 1.0 0.00 0.00 0.00 64 1011.5
20260508235204 58 345 0.0 2.0 0.00 0.00 0.00 64 1011.4
20260508234704 58 345 0.0 2.0 0.00 0.00 0.00 62 1011.3
20260508234204 59 345 0.0 1.0 0.00 0.00 0.00 63 1011.3
20260508233704 59 322 1.0 3.0 0.00 0.00 0.00 62 1011.2
20260508233204 60 313 1.0 8.0 0.00 0.00 0.00 59 1011.2
20260508232704 61 304 1.0 2.0 0.00 0.00 0.00 59 1011.0
20260508232204 61 304 1.0 2.0 0.00 0.00 0.00 54 1010.9
20260508231704 62 340 2.0 5.0 0.00 0.00 0.00 52 1010.9
20260508231204 62 281 1.0 2.0 0.00 0.00 0.00 53 1010.8
20260508230204 61 345 2.0 3.0 0.00 0.00 0.00 58 1010.8
20260508225704 61 309 0.0 2.0 0.00 0.00 0.00 59 1010.9
20260508225204 61 309 1.0 2.0 0.00 0.00 0.00 58 1011.0
20260508224705 61 309 0.0 2.0 0.00 0.00 0.00 58 1011.0
20260508224206 62 309 0.0 2.0 0.00 0.00 0.00 58 1011.0
20260508223705 62 297 1.0 3.0 0.00 0.00 0.00 55 1011.0
20260508223205 63 239 1.0 2.0 0.00 0.00 0.00 51 1010.9
20260508222705 63 271 1.0 6.0 0.00 0.00 0.00 53 1010.8
20260508222205 63 271 2.0 5.0 0.00 0.00 0.00 50 1010.7
20260508221705 64 300 1.0 3.0 0.00 0.00 0.00 46 1010.7
20260508221205 64 270 1.0 7.0 0.00 0.00 0.00 49 1010.7
20260508220705 64 313 0.0 2.0 0.00 0.00 0.00 46 1010.7
20260508220205 64 313 1.0 3.0 0.00 0.00 0.00 50 1010.7
20260508215705 63 232 2.0 3.0 0.00 0.00 0.00 47 1010.8
20260508215205 63 270 1.0 7.0 0.00 0.00 0.00 49 1010.8
20260508214705 62 241 2.0 5.0 0.00 0.00 0.00 47 1010.9
20260508214205 63 8 2.0 7.0 0.00 0.00 0.00 47 1011.0
20260508213705 63 289 2.0 7.0 0.00 0.00 0.00 45 1010.9
20260508213205 63 201 2.0 8.0 0.00 0.00 0.00 47 1011.0
20260508212704 63 242 2.0 10.0 0.00 0.00 0.00 44 1010.9
20260508212205 63 267 3.0 12.0 0.00 0.00 0.00 43 1010.9
20260508211705 63 244 5.0 12.0 0.00 0.00 0.00 44 1010.9
20260508211205 63 242 2.0 12.0 0.00 0.00 0.00 53 1010.9
20260508210705 63 233 0.0 3.0 0.00 0.00 0.00 49 1010.7
20260508210205 63 246 0.0 3.0 0.00 0.00 0.00 49 1010.7
20260508205705 63 289 2.0 7.0 0.00 0.00 0.00 47 1010.6
20260508205205 63 274 2.0 3.0 0.00 0.00 0.00 45 1010.6
20260508204705 62 275 1.0 9.0 0.00 0.00 0.00 53 1010.7
20260508204205 62 255 1.0 3.0 0.00 0.00 0.00 59 1010.8
20260508203705 62 224 0.0 2.0 0.00 0.00 0.00 55 1010.7
20260508203205 62 14 2.0 6.0 0.00 0.00 0.00 55 1010.7
20260508202705 61 276 0.0 3.0 0.00 0.00 0.00 58 1010.6
20260508202204 62 180 1.0 6.0 0.00 0.00 0.00 53 1010.6
20260508201705 61 221 0.0 6.0 0.00 0.00 0.00 59 1010.7
20260508201205 62 215 0.0 2.0 0.00 0.00 0.00 55 1010.7
20260508200705 63 215 0.0 2.0 0.00 0.00 0.00 48 1010.7